TimeAKST,TemperatureF,Dew PointF,Humidity,Sea Level PressureIn,VisibilityMPH,Wind Direction,Wind SpeedMPH,Gust SpeedMPH,PrecipitationIn,Events,Conditions,WindDirDegrees,DateUTC
12:44 AM,24.8,23.0,93,30.01,2.5,WNW,11.5,-,0.01,Snow,Light Snow,290,2013-11-26 09:44:00
12:54 AM,26.1,23.0,88,30.02,2.5,WNW,11.5,-,0.01,Snow,Light Snow,290,2013-11-26 09:54:00
1:29 AM,26.6,24.8,93,30.02,3.0,WNW,12.7,-,0.00,Snow,Light Snow,300,2013-11-26 10:29:00
1:37 AM,26.6,24.8,93,30.02,2.5,WNW,12.7,-,0.00,Snow,Light Snow,290,2013-11-26 10:37:00
1:54 AM,27.0,25.0,92,30.03,3.0,WNW,11.5,-,0.00,Snow,Light Snow,300,2013-11-26 10:54:00
2:54 AM,26.1,24.1,92,30.03,4.0,WNW,12.7,-,0.01,Snow,Light Snow,290,2013-11-26 11:54:00
3:05 AM,26.6,24.8,93,30.02,4.0,WNW,13.8,-,0.00,Snow,Light Snow,290,2013-11-26 12:05:00
3:54 AM,26.1,24.1,92,30.04,8.0,WNW,13.8,-,0.00,,Overcast,290,2013-11-26 12:54:00
4:54 AM,27.0,24.1,89,30.03,10.0,WNW,15.0,-,0.00,,Overcast,290,2013-11-26 13:54:00
5:54 AM,27.0,24.1,89,30.03,10.0,WNW,15.0,-,0.00,,Overcast,290,2013-11-26 14:54:00
6:54 AM,27.0,25.0,92,30.03,10.0,WNW,12.7,-,0.00,,Overcast,290,2013-11-26 15:54:00
7:54 AM,28.9,26.1,89,30.03,9.0,WNW,13.8,-,0.00,,Overcast,290,2013-11-26 16:54:00
8:34 AM,28.4,24.8,86,30.03,8.0,WNW,12.7,-,N/A,,Overcast,290,2013-11-26 17:34:00
8:54 AM,28.0,25.0,88,30.04,7.0,WNW,11.5,-,N/A,,Overcast,290,2013-11-26 17:54:00
9:54 AM,28.0,26.1,92,30.04,10.0,WNW,15.0,-,N/A,,Overcast,290,2013-11-26 18:54:00
10:54 AM,30.0,27.0,88,30.04,10.0,WNW,11.5,-,N/A,,Overcast,290,2013-11-26 19:54:00
11:54 AM,28.9,27.0,92,30.04,10.0,WNW,11.5,-,N/A,,Overcast,290,2013-11-26 20:54:00
12:54 PM,33.1,28.0,82,30.03,10.0,NW,12.7,-,N/A,,Overcast,310,2013-11-26 21:54:00
1:54 PM,30.9,27.0,85,30.02,10.0,WNW,11.5,-,N/A,,Overcast,290,2013-11-26 22:54:00
2:54 PM,33.1,28.0,82,30.01,10.0,WNW,11.5,-,N/A,,Overcast,290,2013-11-26 23:54:00
3:54 PM,30.0,28.0,92,30.01,10.0,WNW,9.2,-,N/A,,Overcast,290,2013-11-27 00:54:00
4:08 PM,30.2,28.4,93,30.00,10.0,WNW,10.4,-,N/A,,Overcast,290,2013-11-27 01:08:00
4:54 PM,30.0,28.0,92,30.00,10.0,WNW,12.7,-,N/A,,Overcast,290,2013-11-27 01:54:00
5:54 PM,30.9,28.0,89,29.99,10.0,WNW,13.8,-,N/A,,Overcast,300,2013-11-27 02:54:00
6:54 PM,30.9,28.0,89,29.99,10.0,WNW,15.0,-,N/A,,Overcast,290,2013-11-27 03:54:00
7:54 PM,32.0,28.0,85,29.99,10.0,WNW,11.5,-,N/A,,Overcast,290,2013-11-27 04:54:00
8:54 PM,30.9,28.0,89,29.98,10.0,WNW,11.5,-,N/A,,Overcast,300,2013-11-27 05:54:00
9:54 PM,30.9,28.0,89,29.99,10.0,NW,8.1,-,N/A,,Overcast,310,2013-11-27 06:54:00
10:54 PM,32.0,28.9,88,29.98,10.0,WNW,10.4,-,N/A,,Overcast,290,2013-11-27 07:54:00
11:54 PM,32.0,28.9,88,29.96,10.0,WNW,13.8,-,N/A,,Overcast,290,2013-11-27 08:54:00